Regional Weather Roundup
Issued by NWS Newport/Morehead, NC

Current Version | Previous Version | Text Only | Print | Product List | Glossary On
Versions: 1 2 3 4 5 6 7 8 9 10 11 12 13 14 15 16 17 18 19 20 21 22 23 24 25 26 27 28 29 30 31 32 33 34 35 36 37 38 39 40 41 42 43 44 45 46 47 48 49 50
000 ASUS42 KMHX 030125 RWRMHX WEATHER ROUNDUP FOR EASTERN NORTH CAROLINA NATIONAL WEATHER SERVICE NEWPORT/MOREHEAD CITY NC 900 PM EDT MON MAY 02 2016 NOTE: "FAIR" INDICATES FEW OR NO CLOUDS BELOW 12,000 FEET WITH NO SIGNIFICANT WEATHER AND/OR OBSTRUCTIONS TO VISIBILITY NCZ015>017-031-032-045>047-102-103-030200- NORTH COAST CITY SKY/WX TMP DP RH WIND PRES REMARKS EDENTON CLOUDY 70 67 91 S8 29.93S ELIZABETH CITY LGT RAIN 68 65 90 SW13 29.91F KITTY HAWK CLOUDY 72 67 84 SW5 29.93S MANTEO NOT AVBL $$ NCZ045>047-081-094-103-104-030200- CENTRAL COAST CITY SKY/WX TMP DP RH WIND PRES REMARKS FRISCO CLOUDY 71 69 93 SW10 29.98S SWANQUARTER NOT AVBL $$ NCZ095-097-098-100-101-030200- SOUTHERN COAST CITY SKY/WX TMP DP RH WIND PRES REMARKS BEAUFORT CLOUDY 71 69 93 S10 29.98S CEDAR ISLAND NOT AVBL JACKSONVILLE CLOUDY 73 68 84 S8 29.98R PINEY ISLAND NOT AVBL WILMINGTON MOCLDY 74 68 81 S8 29.99R $$ NCZ011>013-027>030-043-044-078>080-089-090>093-098-030200- COASTAL PLAIN CITY SKY/WX TMP DP RH WIND PRES REMARKS AHOSKIE CLOUDY 68 64 84 S5 29.92S CLINTON RAIN 66 65 99 CALM 30.00F ELIZABETHTOWN CLOUDY 70 68 95 NW3 30.00R GOLDSBORO TSTM 68 68 100 SW21 29.98R GREENVILLE LGT RAIN 70 68 94 SW10 29.98R HAVELOCK CLOUDY 73 67 81 S9 29.98R KENANSVILLE LGT RAIN 68 63 86 CALM 30.02R KINSTON CLOUDY N/A N/A N/A SW6 29.98R NEW BERN CLOUDY 73 67 81 SW8 29.98R RICHLANDS MOCLDY 71 69 93 S6 29.99R ROCKY MOUNT LGT RAIN 72 65 78 S13G20 29.93R WASHINGTON LGT RAIN 67 65 94 CALM 29.96R WHITEVILLE CLOUDY 74 67 80 S8 29.98R $$ AMZ130-135-150-152-154-156-158-170-250-252-270-ANZ085-086-088-633-658-670-030200- MARINE OBSERVATIONS STATION/POSITION TIME TEMP WIND PRES WAVE SWELL AIR SEA DIR/SP/G HT/PER HT/PER (UTC) (F) (DEG/KT/KT) (MB) (FT/S) (FT/S) CHESAPEAKE LIGHT 0100 70 210/ 26/ 27 1012.2 64 E VA BEACH 0050 62 54 200/ 17/ 19 1013.0 4/10 2/10 DUCK 0100 72 65 1013.0 2 E DUCK 0011 59 N/A 3/11 2/11 OREGON INLET 0100 72 73 1013.9 13E OREGON INLT 0100 61 N/A 4/ 6 3/11 HATTERAS CG 0100 71 70 1014.8 DIAMOND BUOY 0050 75 74 220/ 14/ 17 1015.0 4/11 2/11 CAPE LOOKOUT 0100 71 200/ 8/ 9 1015.2 BEAUFORT LAB 0100 71 68 1014.4 30 SE NEW RVR IN 0025 70 N/A 4/10 2/11 27 SE WRIGHTSVLE 0108 73 72 190/ 8/ 12 1016.0 5 SE WRIGHTSVLE 0008 72 70 200/ 10/ 14 1015.3 225 S CAPE HAT 0050 74 75 160/ 14/ 16 1018.5 4/11 3/11 41 SE CHARLESTON 0050 76 75 180/ 6/ 8 1015.0 3/ 9 3/ 9 $$

USA.gov is the U.S. government's official web portal to all federal, state and local government web resources and services.